[[{"header":{"parameterUnit":"m.s-1","parameterCategory":1,"la1":30.2991,"la2":30.254,"lo1":-89.0895,"lo2":-89.0444,"dy":0.0017,"dx":0.0017,"nx":28,"ny":28,"refTime":"2026-02-17T03:00:00:Z","depth":0,"parameterNumber":2,"parameterNumberName":"U-component_of_WINDS"},"data":[0,0,0,0,0,0,0,0,0,0,0,0,0,0,0,0,0,0,0,0,0,0,0,0,0,0,0,0,0,0,0,0,0,0,0,0,0,0,0,0,0,0,0,0,0,0,0,0,0,0,0,0,0,0,0,0,0,0,-0.1164,-0.1164,0,-0.1186,-0.1186,-0.1186,-0.1219,-0.1219,-0.122,-0.122,-0.1242,-0.1243,-0.1243,0,0,0,0,0,0,0,0,0,0,0,0,0,-0.115,-0.115,-0.1164,-0.1164,-0.1164,-0.1186,-0.1186,-0.1186,-0.1219,-0.1219,-0.122,-0.1221,-0.1242,-0.1243,-0.1243,0,0,0,0,0,0,0,0,0,0,0,0,0,-0.1162,-0.115,-0.1164,-0.1183,-0.1185,-0.1186,-0.1186,-0.1186,-0.1218,-0.1219,-0.122,-0.1221,-0.1242,-0.1243,-0.1243,-0.1226,0,0,-0.1243,-0.1243,0,0,0,0,0,0,0,0,-0.1161,-0.1163,-0.118,-0.1182,-0.1184,-0.12,-0.1189,-0.12,-0.1218,-0.1206,-0.122,-0.1221,-0.1228,-0.1229,-0.1231,-0.1227,-0.1228,-0.1243,-0.1243,-0.1243,-0.1243,0,0,0,0,0,0,0,-0.116,-0.1162,-0.1173,-0.118,-0.1183,-0.1191,-0.1193,-0.1191,-0.1212,-0.1207,-0.1209,-0.1211,-0.1229,-0.1231,-0.1232,-0.1228,-0.1243,-0.1243,-0.1243,-0.1243,-0.1213,-0.1212,0,0,0,0,0,0,-0.1157,-0.1161,-0.1172,-0.1173,-0.1174,-0.119,-0.1193,-0.1194,-0.1212,-0.1215,-0.1211,-0.1213,-0.1231,-0.1232,-0.1233,-0.1216,-0.1243,-0.1243,-0.1243,-0.1214,-0.1213,-0.1212,0,0,0,0,0,0,-0.1156,-0.1157,-0.1171,-0.1168,-0.117,-0.1189,-0.119,-0.1194,-0.1196,-0.1215,-0.1218,-0.1209,-0.1231,-0.1233,-0.1228,-0.1217,-0.1243,-0.1243,-0.1215,-0.1214,-0.1212,-0.1181,0,0,0,0,0,0,-0.1156,-0.1157,-0.1151,-0.1167,-0.117,-0.1165,-0.119,-0.1194,-0.1197,-0.12,-0.1214,-0.1218,-0.1232,-0.1228,-0.1228,-0.1218,-0.1243,-0.1216,-0.1214,-0.1213,-0.1183,-0.1178,-0.1175,0,0,0,0,0,-0.1155,-0.1141,-0.1151,-0.1152,-0.1163,-0.1165,-0.1166,-0.1183,-0.1195,-0.119,-0.1202,-0.1217,-0.1218,-0.1227,-0.1228,-0.1217,-0.1217,-0.1215,-0.1213,-0.1185,-0.1179,-0.1175,0,0,0,0,0,0,-0.1123,-0.1143,-0.1154,-0.1145,-0.1153,-0.117,-0.1163,-0.1177,-0.1182,-0.1184,-0.1205,-0.1208,-0.1201,-0.1208,-0.1218,-0.1203,-0.122,-0.1218,-0.1198,-0.1193,-0.1189,-0.1188,-0.1243,0,0,0,0,0,-0.1114,-0.1114,-0.1132,-0.1122,-0.1125,-0.1143,-0.1145,-0.1157,-0.1166,-0.117,-0.1181,-0.1189,-0.1192,-0.1193,-0.1196,-0.1184,-0.1188,-0.1177,-0.1173,-0.117,-0.1168,-0.1163,-0.1159,-0.1206,-0.1206,-0.1206,0,0,-0.1097,-0.1108,-0.1107,-0.1116,-0.1123,-0.1123,-0.1146,-0.1144,-0.1144,-0.117,-0.1166,-0.1175,-0.1185,-0.1177,-0.1174,-0.1183,-0.1156,-0.1167,-0.1164,-0.1165,-0.1161,-0.1156,-0.1152,-0.1204,-0.1205,-0.1205,0,0,-0.1066,-0.1074,-0.1067,-0.1074,-0.1086,-0.1098,-0.1096,-0.1111,-0.1118,-0.1115,-0.1134,-0.1134,-0.1137,-0.1144,-0.1148,-0.112,-0.1135,-0.112,-0.11,-0.1095,-0.1091,-0.1088,-0.1079,-0.1075,-0.1118,-0.1118,-0.1118,0,-0.1043,-0.1043,-0.1062,-0.1059,-0.1063,-0.1086,-0.1079,-0.1085,-0.1096,-0.1099,-0.1108,-0.1114,-0.1122,-0.1116,-0.1109,-0.1111,-0.1111,-0.1119,-0.109,-0.1087,-0.1084,-0.1076,-0.1072,-0.1117,-0.1117,-0.1117,-0.1117,0,-0.1015,-0.1015,-0.1008,-0.1019,-0.1021,-0.1017,-0.1035,-0.1035,-0.1047,-0.1058,-0.1055,-0.1066,-0.1072,-0.1072,-0.1083,-0.1068,-0.1073,-0.1086,-0.1104,-0.1078,-0.107,-0.1067,-0.1114,-0.1115,-0.1115,-0.1116,0,0,-0.0964,-0.0986,-0.0983,-0.0989,-0.1003,-0.1003,-0.0999,-0.1006,-0.1006,-0.1013,-0.1011,-0.1013,-0.1026,-0.103,-0.1043,-0.1039,-0.1017,-0.1052,-0.1053,-0.1046,-0.1001,-0.0992,-0.0988,-0.1026,-0.1026,-0.1025,-0.1001,0,-0.0937,-0.0932,-0.0949,-0.094,-0.094,-0.0962,-0.0959,-0.0967,-0.0978,-0.098,-0.0991,-0.0993,-0.1008,-0.1011,-0.1008,-0.102,-0.1008,-0.1022,-0.1025,-0.1025,-0.1023,-0.0984,-0.0974,-0.095,-0.0998,-0.0997,-0.0997,0,-0.0904,-0.091,-0.0901,-0.0916,-0.0917,-0.0914,-0.0921,-0.0923,-0.0933,-0.0941,-0.0946,-0.0961,-0.0959,-0.0975,-0.0973,-0.0982,-0.0984,-0.099,-0.099,-0.0992,-0.101,-0.0985,-0.0943,-0.0939,-0.0992,-0.0992,-0.0993,0,-0.0869,-0.0874,-0.087,-0.0874,-0.0892,-0.0889,-0.0896,-0.0907,-0.091,-0.0917,-0.0919,-0.0925,-0.0928,-0.0932,-0.0949,-0.0959,-0.0945,-0.0962,-0.0952,-0.0951,-0.0948,-0.0949,-0.0907,-0.0948,-0.0948,-0.0948,-0.0948,0,-0.0837,-0.0831,-0.0855,-0.0852,-0.0846,-0.0865,-0.0859,-0.0868,-0.0878,-0.0878,-0.0897,-0.0896,-0.0918,-0.0919,-0.0932,-0.0929,-0.093,-0.0937,-0.094,-0.0936,-0.0935,-0.0938,-0.094,-0.0947,-0.0948,-0.0948,-0.0948,0,-0.0797,-0.0813,-0.081,-0.0827,-0.0831,-0.0826,-0.084,-0.0839,-0.085,-0.085,-0.0851,-0.0869,-0.0872,-0.0889,-0.0896,-0.0905,-0.0897,-0.0904,-0.0894,-0.0896,-0.0885,-0.0886,-0.0845,-0.0841,-0.0884,-0.0883,-0.0883,0,-0.0776,-0.0772,-0.0788,-0.079,-0.0796,-0.0798,-0.0801,-0.082,-0.0822,-0.0834,-0.0831,-0.0836,-0.0841,-0.0845,-0.0859,-0.0865,-0.0872,-0.0857,-0.0873,-0.0869,-0.0873,-0.0874,-0.0874,-0.0854,-0.0854,-0.0853,-0.0853,0,-0.0737,-0.0745,-0.0749,-0.0756,-0.0759,-0.0765,-0.0772,-0.0772,-0.0793,-0.0795,-0.0799,-0.0802,-0.081,-0.0815,-0.0823,-0.0831,-0.0845,-0.0847,-0.0846,-0.0841,-0.0836,-0.084,-0.0886,-0.0848,-0.0849,-0.0849,-0.0849,-0.085,-0.0707,-0.0705,-0.0716,-0.072,-0.0727,-0.0734,-0.0733,-0.0745,-0.0748,-0.0756,-0.0767,-0.0769,-0.078,-0.0793,-0.0799,-0.0802,-0.081,-0.0807,-0.0806,-0.0806,-0.0804,-0.0835,-0.0803,-0.0803,-0.0803,-0.0804,-0.0804,0,-0.067,-0.0678,-0.0682,-0.0691,-0.0694,-0.0708,-0.0717,-0.0718,-0.072,-0.0729,-0.0734,-0.0739,-0.0744,-0.0758,-0.0764,-0.0764,-0.0771,-0.0765,-0.0766,-0.0767,-0.0795,-0.0797,-0.0759,-0.0759,-0.0759,-0.0759,-0.0759,-0.0759,-0.0651,-0.0648,-0.0658,-0.0659,-0.0668,-0.0671,-0.0675,-0.0681,-0.0688,-0.0692,-0.0697,-0.0706,-0.0717,-0.0725,-0.073,-0.0734,-0.0736,-0.0728,-0.0735,-0.0761,-0.0765,-0.0769,-0.0771,-0.0728,-0.0728,-0.0707,-0.0707,-0.0707]},{"header":{"parameterUnit":"m.s-1","parameterCategory":1,"la1":30.2991,"la2":30.254,"lo1":-89.0895,"lo2":-89.0444,"dy":0.0017,"dx":0.0017,"nx":28,"ny":28,"refTime":"2026-02-17T03:00:00:Z","depth":0,"parameterNumber":3,"parameterNumberName":"V-component_of_WINDS"},"data":[0,0,0,0,0,0,0,0,0,0,0,0,0,0,0,0,0,0,0,0,0,0,0,0,0,0,0,0,0,0,0,0,0,0,0,0,0,0,0,0,0,0,0,0,0,0,0,0,0,0,0,0,0,0,0,0,0,0,-0.2524,-0.2525,0,-0.259,-0.259,-0.2591,-0.2632,-0.2632,-0.2632,-0.2632,-0.2696,-0.2697,-0.2699,0,0,0,0,0,0,0,0,0,0,0,0,0,-0.243,-0.2432,-0.2524,-0.2525,-0.2526,-0.259,-0.259,-0.2591,-0.2632,-0.2632,-0.2632,-0.2632,-0.2695,-0.2697,-0.2699,0,0,0,0,0,0,0,0,0,0,0,0,0,-0.2481,-0.2432,-0.2524,-0.2553,-0.2557,-0.2589,-0.2591,-0.2592,-0.2631,-0.2632,-0.2632,-0.2632,-0.2695,-0.2697,-0.2699,-0.2706,0,0,-0.2706,-0.2707,0,0,0,0,0,0,0,0,-0.2478,-0.2484,-0.2548,-0.2551,-0.2555,-0.2603,-0.2581,-0.263,-0.2631,-0.2603,-0.2632,-0.2633,-0.2664,-0.2669,-0.268,-0.2709,-0.2712,-0.2706,-0.2707,-0.2708,-0.2709,0,0,0,0,0,0,0,-0.2474,-0.2482,-0.255,-0.2549,-0.2553,-0.2563,-0.257,-0.259,-0.2631,-0.2605,-0.2609,-0.2616,-0.2666,-0.2678,-0.2682,-0.2713,-0.2706,-0.2708,-0.2709,-0.271,-0.2752,-0.2751,0,0,0,0,0,0,-0.2467,-0.2478,-0.2548,-0.2552,-0.2517,-0.2564,-0.2572,-0.2587,-0.2631,-0.2638,-0.2616,-0.2618,-0.2674,-0.268,-0.2685,-0.2697,-0.2708,-0.271,-0.2712,-0.2752,-0.2752,-0.2751,0,0,0,0,0,0,-0.2464,-0.2472,-0.2545,-0.2516,-0.2526,-0.2565,-0.2581,-0.2588,-0.2601,-0.2639,-0.2646,-0.2621,-0.2675,-0.2681,-0.2701,-0.27,-0.2711,-0.2713,-0.2752,-0.2752,-0.2751,-0.2721,0,0,0,0,0,0,-0.2462,-0.2471,-0.2475,-0.2516,-0.2527,-0.2561,-0.2581,-0.2589,-0.2605,-0.2608,-0.2645,-0.2652,-0.2675,-0.2697,-0.2703,-0.2703,-0.2715,-0.2752,-0.2752,-0.2752,-0.2722,-0.272,-0.2718,0,0,0,0,0,-0.2458,-0.2463,-0.2475,-0.2483,-0.2533,-0.2561,-0.2568,-0.2596,-0.2604,-0.2608,-0.2633,-0.265,-0.2699,-0.2699,-0.2706,-0.2706,-0.2753,-0.2752,-0.2752,-0.2724,-0.272,-0.2718,0,0,0,0,0,0,-0.2419,-0.2469,-0.2483,-0.2501,-0.2527,-0.2568,-0.2574,-0.2592,-0.2614,-0.2616,-0.2649,-0.2658,-0.2674,-0.2692,-0.2691,-0.2716,-0.2728,-0.2728,-0.2704,-0.2701,-0.2699,-0.2695,-0.2717,0,0,0,0,0,-0.2413,-0.2433,-0.2474,-0.2486,-0.2499,-0.2534,-0.2547,-0.2567,-0.2594,-0.2605,-0.2631,-0.2656,-0.2677,-0.269,-0.2711,-0.2725,-0.2734,-0.2729,-0.2726,-0.2724,-0.2724,-0.2734,-0.2733,-0.275,-0.275,-0.275,0,0,-0.24,-0.2429,-0.244,-0.2479,-0.2502,-0.2521,-0.2543,-0.2561,-0.2576,-0.2607,-0.2628,-0.2648,-0.2678,-0.2695,-0.2704,-0.2711,-0.2722,-0.2723,-0.2721,-0.2723,-0.2734,-0.2732,-0.273,-0.2749,-0.2749,-0.2749,0,0,-0.2386,-0.241,-0.2424,-0.2446,-0.248,-0.2504,-0.2507,-0.2546,-0.2561,-0.2582,-0.2607,-0.2624,-0.2659,-0.268,-0.2695,-0.269,-0.2707,-0.2696,-0.2683,-0.2692,-0.2691,-0.269,-0.2689,-0.2689,-0.2696,-0.2696,-0.2696,0,-0.2366,-0.2397,-0.2428,-0.2446,-0.2463,-0.2494,-0.2508,-0.2528,-0.2566,-0.2577,-0.2584,-0.263,-0.2652,-0.2675,-0.2674,-0.2685,-0.269,-0.2692,-0.2689,-0.2688,-0.2688,-0.2687,-0.2687,-0.2694,-0.2695,-0.2695,-0.2695,0,-0.237,-0.2391,-0.2397,-0.2436,-0.2454,-0.2469,-0.2503,-0.2516,-0.2535,-0.2557,-0.2579,-0.2607,-0.2635,-0.2642,-0.2659,-0.2667,-0.2671,-0.2683,-0.2695,-0.2684,-0.2684,-0.2684,-0.2692,-0.2693,-0.2693,-0.2694,0,0,-0.2334,-0.2391,-0.2393,-0.2411,-0.2451,-0.2468,-0.2484,-0.2514,-0.2525,-0.255,-0.2566,-0.2595,-0.2607,-0.2625,-0.2644,-0.2652,-0.2648,-0.2664,-0.2665,-0.2661,-0.266,-0.2651,-0.2651,-0.266,-0.266,-0.266,-0.2658,0,-0.2327,-0.2361,-0.239,-0.2413,-0.2433,-0.2463,-0.2478,-0.2504,-0.2525,-0.2544,-0.2567,-0.2589,-0.2602,-0.2613,-0.2622,-0.2647,-0.2649,-0.2647,-0.2674,-0.2674,-0.2667,-0.2651,-0.2642,-0.2639,-0.2658,-0.2658,-0.2658,0,-0.2324,-0.235,-0.2375,-0.2415,-0.2424,-0.2437,-0.2467,-0.2485,-0.2515,-0.253,-0.255,-0.2571,-0.259,-0.26,-0.2626,-0.2625,-0.2637,-0.2651,-0.2651,-0.2656,-0.2666,-0.2655,-0.2638,-0.2638,-0.2658,-0.2658,-0.2658,0,-0.2296,-0.2338,-0.2359,-0.2373,-0.242,-0.2428,-0.2448,-0.2478,-0.2494,-0.2519,-0.253,-0.2556,-0.2571,-0.259,-0.2618,-0.2622,-0.2642,-0.2654,-0.2655,-0.2654,-0.2658,-0.2657,-0.2643,-0.2664,-0.2664,-0.2664,-0.2664,0,-0.2286,-0.2301,-0.2348,-0.236,-0.2378,-0.2411,-0.2426,-0.2448,-0.2475,-0.2492,-0.2518,-0.2534,-0.2569,-0.2588,-0.261,-0.2629,-0.2635,-0.2647,-0.2653,-0.2646,-0.2644,-0.2655,-0.2656,-0.2664,-0.2664,-0.2664,-0.2664,0,-0.2259,-0.2291,-0.2316,-0.2358,-0.2369,-0.238,-0.2416,-0.2429,-0.2452,-0.2474,-0.248,-0.2516,-0.2541,-0.257,-0.2603,-0.2618,-0.2635,-0.2643,-0.2626,-0.2629,-0.2629,-0.2629,-0.2622,-0.2623,-0.2642,-0.2642,-0.2641,0,-0.2251,-0.2263,-0.2308,-0.2322,-0.2341,-0.2363,-0.238,-0.2413,-0.2429,-0.2465,-0.2474,-0.25,-0.2524,-0.2561,-0.2589,-0.2615,-0.2624,-0.262,-0.2628,-0.2621,-0.2625,-0.2625,-0.2627,-0.2618,-0.2618,-0.2617,-0.2617,0,-0.2234,-0.225,-0.2274,-0.2304,-0.2324,-0.2349,-0.2374,-0.2384,-0.2422,-0.2439,-0.2465,-0.2483,-0.2518,-0.2544,-0.2574,-0.2592,-0.2611,-0.2614,-0.2616,-0.2609,-0.2599,-0.2606,-0.2621,-0.2614,-0.2615,-0.2615,-0.2615,-0.2615,-0.2217,-0.223,-0.2264,-0.229,-0.2313,-0.2337,-0.2352,-0.2378,-0.2401,-0.2433,-0.245,-0.2476,-0.2506,-0.2548,-0.2566,-0.2586,-0.2593,-0.2595,-0.2596,-0.2596,-0.2594,-0.2595,-0.2591,-0.2591,-0.2591,-0.2591,-0.2592,0,-0.2203,-0.2226,-0.225,-0.2286,-0.2307,-0.2324,-0.2354,-0.2369,-0.2392,-0.2419,-0.2442,-0.2472,-0.2498,-0.2529,-0.2556,-0.2566,-0.2576,-0.2573,-0.2573,-0.2577,-0.2586,-0.2582,-0.2565,-0.2565,-0.2565,-0.2565,-0.2565,-0.2565,-0.2198,-0.2221,-0.224,-0.2275,-0.2298,-0.2325,-0.234,-0.2362,-0.2384,-0.2417,-0.2439,-0.246,-0.2488,-0.2518,-0.2542,-0.2551,-0.256,-0.2555,-0.2565,-0.2574,-0.2576,-0.2578,-0.2575,-0.2556,-0.2556,-0.2555,-0.2555,-0.2555]}]]